This is the latest recevied weather packets stored in our database for station/object SQ3VAS-10. If no packets are shown the sender has not sent any weather packets the latest 10 day(s).
| Time | Temp. | Humidity | Pressure | Rain* | Wind** | Luminosity | Snow |
|---|---|---|---|---|---|---|---|
| 1777754242 | 16.11° C | 53% | 1016.9 hPa | - | - | - | - |
| 1777753670 | 16.11° C | 52% | 1016.9 hPa | - | - | - | - |
| 1777753096 | 16.67° C | 51% | 1016.9 hPa | - | - | - | - |
| 1777752527 | 16.67° C | 49% | 1016.9 hPa | - | - | - | - |
| 1777751957 | 17.22° C | 47% | 1016.8 hPa | - | - | - | - |
| 1777750809 | 17.78° C | 45% | 1016.7 hPa | - | - | - | - |
| 1777750236 | 18.33° C | 46% | 1016.7 hPa | - | - | - | - |
| 1777749665 | 19.44° C | 43% | 1016.7 hPa | - | - | - | - |
| 1777749093 | 20° C | 40% | 1016.6 hPa | - | - | - | - |
| 1777748521 | 20.56° C | 40% | 1016.7 hPa | - | - | - | - |
| 1777747949 | 21.11° C | 40% | 1016.6 hPa | - | - | - | - |
| 1777747377 | 22.22° C | 36% | 1016.5 hPa | - | - | - | - |
| 1777746806 | 23.33° C | 32% | 1016.4 hPa | - | - | - | - |
| 1777746233 | 23.89° C | 28% | 1016.5 hPa | - | - | - | - |
| 1777745661 | 25° C | 25% | 1016.5 hPa | - | - | - | - |
| 1777745087 | 25.56° C | 25% | 1016.4 hPa | - | - | - | - |
| 1777744516 | 26.67° C | 24% | 1016.4 hPa | - | - | - | - |
| 1777743945 | 27.22° C | 22% | 1016.3 hPa | - | - | - | - |
| 1777743371 | 27.78° C | 22% | 1016.4 hPa | - | - | - | - |
| 1777742799 | 28.33° C | 20% | 1016.4 hPa | - | - | - | - |
| 1777742226 | 28.89° C | 20% | 1016.4 hPa | - | - | - | - |
| 1777741656 | 28.89° C | 19% | 1016.4 hPa | - | - | - | - |
| 1777741078 | 30° C | 19% | 1016.4 hPa | - | - | - | - |
| 1777740505 | 30° C | 18% | 1016.5 hPa | - | - | - | - |
| 1777739933 | 30° C | 17% | 1016.6 hPa | - | - | - | - |
* Rain since midnight (hover to see other rain measurements)
** Current wind speed in m/s (hover to see current wind gust speed)